contact:dominique.lefevre@mio.osupytheas.fr, maurice.libes@osupytheas.fr, didier.mallarino@osupytheas.fr
Project:EMSO http://www.emso-fr.org/EMSO-France
Depth: 2436.0 m
Title:EMSO Ligure Ouest : Data MII capteur MICROCAT
DateTime_Computer,Latitude,Longitude,Temperature,Conductivity,Pressure,DateTime_Instrument
DateTime_Computer,Latitude,Longitude,degC,S m-1,dbar,DateTime_Instrument
2022-11-17T00:01:32Z,42.805,6.029,13.3009,4.60062,2470.577,2022-11-17T02:03:30Z
2022-11-17T00:04:35Z,42.805,6.029,13.3011,4.60061,2470.577,2022-11-17T02:06:33Z
2022-11-17T00:07:38Z,42.805,6.029,13.3011,4.60057,2470.577,2022-11-17T02:09:36Z
2022-11-17T00:10:41Z,42.805,6.029,13.3014,4.60059,2470.577,2022-11-17T02:12:39Z
2022-11-17T00:13:44Z,42.805,6.029,13.3009,4.60058,2470.577,2022-11-17T02:15:42Z
2022-11-17T00:16:47Z,42.805,6.029,13.3011,4.60057,2470.591,2022-11-17T02:18:45Z
2022-11-17T00:19:50Z,42.805,6.029,13.3010,4.60057,2470.577,2022-11-17T02:21:48Z
2022-11-17T00:22:53Z,42.805,6.029,13.3011,4.60058,2470.553,2022-11-17T02:24:52Z
2022-11-17T00:25:56Z,42.805,6.029,13.3011,4.60059,2470.6,2022-11-17T02:27:55Z
2022-11-17T00:28:59Z,42.805,6.029,13.3009,4.60061,2470.577,2022-11-17T02:30:58Z
2022-11-17T00:32:02Z,42.805,6.029,13.3010,4.60057,2470.577,2022-11-17T02:34:01Z
2022-11-17T00:35:06Z,42.805,6.029,13.3013,4.60062,2470.6,2022-11-17T02:37:04Z
2022-11-17T00:38:09Z,42.805,6.029,13.3011,4.60060,2470.577,2022-11-17T02:40:07Z
2022-11-17T00:41:12Z,42.805,6.029,13.3007,4.60057,2470.577,2022-11-17T02:43:10Z
2022-11-17T00:44:15Z,42.805,6.029,13.3009,4.60059,2470.591,2022-11-17T02:46:13Z
2022-11-17T00:47:18Z,42.805,6.029,13.3011,4.60060,2470.539,2022-11-17T02:49:16Z
2022-11-17T00:50:21Z,42.805,6.029,13.3009,4.60060,2470.577,2022-11-17T02:52:19Z
2022-11-17T00:53:24Z,42.805,6.029,13.3012,4.60057,2470.577,2022-11-17T02:55:22Z
2022-11-17T00:56:27Z,42.805,6.029,13.3016,4.60061,2470.553,2022-11-17T02:58:25Z
2022-11-17T00:59:30Z,42.805,6.029,13.3009,4.60058,2470.577,2022-11-17T03:01:29Z
2022-11-17T01:02:33Z,42.805,6.029,13.3011,4.60061,2470.577,2022-11-17T03:04:32Z
2022-11-17T01:05:36Z,42.805,6.029,13.3010,4.60064,2470.591,2022-11-17T03:07:35Z
2022-11-17T01:08:39Z,42.805,6.029,13.3009,4.60061,2470.577,2022-11-17T03:10:38Z
2022-11-17T01:11:42Z,42.805,6.029,13.3009,4.60056,2470.577,2022-11-17T03:13:41Z
2022-11-17T01:14:46Z,42.805,6.029,13.3011,4.60060,2470.614,2022-11-17T03:16:44Z
2022-11-17T01:17:49Z,42.805,6.029,13.3011,4.60061,2470.614,2022-11-17T03:19:47Z
2022-11-17T01:20:52Z,42.805,6.029,13.3011,4.60063,2470.577,2022-11-17T03:22:50Z
2022-11-17T01:23:55Z,42.805,6.029,13.3009,4.60059,2470.614,2022-11-17T03:25:53Z
2022-11-17T01:26:58Z,42.805,6.029,13.3010,4.60058,2470.577,2022-11-17T03:28:56Z
2022-11-17T01:30:01Z,42.805,6.029,13.3008,4.60056,2470.577,2022-11-17T03:31:59Z
2022-11-17T01:33:04Z,42.805,6.029,13.3010,4.60061,2470.577,2022-11-17T03:35:02Z
2022-11-17T01:36:07Z,42.805,6.029,13.3010,4.60059,2470.591,2022-11-17T03:38:05Z
2022-11-17T01:39:10Z,42.805,6.029,13.3008,4.60063,2470.6,2022-11-17T03:41:08Z
2022-11-17T01:42:13Z,42.805,6.029,13.3011,4.60056,2470.614,2022-11-17T03:44:12Z
2022-11-17T01:45:16Z,42.805,6.029,13.3006,4.60063,2470.591,2022-11-17T03:47:15Z
2022-11-17T01:48:19Z,42.805,6.029,13.3011,4.60055,2470.6,2022-11-17T03:50:18Z
2022-11-17T01:51:23Z,42.805,6.029,13.3010,4.60062,2470.577,2022-11-17T03:53:21Z
2022-11-17T01:54:26Z,42.805,6.029,13.3011,4.60061,2470.577,2022-11-17T03:56:24Z
2022-11-17T01:57:29Z,42.805,6.029,13.3011,4.60058,2470.577,2022-11-17T03:59:27Z
2022-11-17T02:00:32Z,42.805,6.029,13.3010,4.60057,2470.577,2022-11-17T04:02:30Z
2022-11-17T02:03:35Z,42.805,6.029,13.3009,4.60056,2470.614,2022-11-17T04:05:33Z
2022-11-17T02:06:38Z,42.805,6.029,13.3011,4.60059,2470.553,2022-11-17T04:08:36Z
2022-11-17T02:09:41Z,42.805,6.029,13.3011,4.60059,2470.591,2022-11-17T04:11:39Z
2022-11-17T02:12:44Z,42.805,6.029,13.3012,4.60059,2470.6,2022-11-17T04:14:42Z
2022-11-17T02:15:47Z,42.805,6.029,13.3007,4.60054,2470.6,2022-11-17T04:17:45Z
2022-11-17T02:18:50Z,42.805,6.029,13.3009,4.60057,2470.567,2022-11-17T04:20:49Z
2022-11-17T02:21:53Z,42.805,6.029,13.3010,4.60054,2470.6,2022-11-17T04:23:52Z
2022-11-17T02:24:56Z,42.805,6.029,13.3014,4.60059,2470.577,2022-11-17T04:26:55Z
2022-11-17T02:27:59Z,42.805,6.029,13.3011,4.60057,2470.553,2022-11-17T04:29:58Z
2022-11-17T02:31:02Z,42.805,6.029,13.3006,4.60062,2470.553,2022-11-17T04:33:01Z
2022-11-17T02:34:06Z,42.805,6.029,13.3007,4.60057,2470.577,2022-11-17T04:36:04Z
2022-11-17T02:37:09Z,42.805,6.029,13.3009,4.60056,2470.553,2022-11-17T04:39:07Z
2022-11-17T02:40:12Z,42.805,6.029,13.3011,4.60054,2470.6,2022-11-17T04:42:10Z
2022-11-17T02:43:15Z,42.805,6.029,13.3009,4.60056,2470.577,2022-11-17T04:45:13Z
2022-11-17T02:46:18Z,42.805,6.029,13.3012,4.60059,2470.577,2022-11-17T04:48:16Z
2022-11-17T02:49:21Z,42.805,6.029,13.3009,4.60057,2470.6,2022-11-17T04:51:19Z
2022-11-17T02:52:24Z,42.805,6.029,13.3012,4.60054,2470.577,2022-11-17T04:54:22Z
2022-11-17T02:55:27Z,42.805,6.029,13.3013,4.60056,2470.6,2022-11-17T04:57:25Z
2022-11-17T02:58:30Z,42.805,6.029,13.3009,4.60055,2470.577,2022-11-17T05:00:29Z
2022-11-17T03:01:33Z,42.805,6.029,13.3007,4.60057,2470.591,2022-11-17T05:03:32Z
2022-11-17T03:04:36Z,42.805,6.029,13.3009,4.60058,2470.577,2022-11-17T05:06:35Z
2022-11-17T03:07:39Z,42.805,6.029,13.3011,4.60056,2470.591,2022-11-17T05:09:38Z
2022-11-17T03:10:42Z,42.805,6.029,13.3009,4.60058,2470.591,2022-11-17T05:12:41Z
2022-11-17T03:13:46Z,42.805,6.029,13.3014,4.60058,2470.577,2022-11-17T05:15:44Z
2022-11-17T03:16:49Z,42.805,6.029,13.3012,4.60055,2470.591,2022-11-17T05:18:47Z
2022-11-17T03:19:52Z,42.805,6.029,13.3011,4.60059,2470.6,2022-11-17T05:21:50Z
2022-11-17T03:22:55Z,42.805,6.029,13.3011,4.60057,2470.6,2022-11-17T05:24:53Z
2022-11-17T03:25:58Z,42.805,6.029,13.3011,4.60054,2470.577,2022-11-17T05:27:56Z
2022-11-17T03:29:01Z,42.805,6.029,13.3009,4.60062,2470.591,2022-11-17T05:30:59Z
2022-11-17T03:32:04Z,42.805,6.029,13.3009,4.60059,2470.577,2022-11-17T05:34:02Z
2022-11-17T03:35:07Z,42.805,6.029,13.3012,4.60067,2470.6,2022-11-17T05:37:05Z
2022-11-17T03:38:10Z,42.805,6.029,13.3009,4.60061,2470.6,2022-11-17T05:40:09Z
2022-11-17T03:41:13Z,42.805,6.029,13.3012,4.60055,2470.577,2022-11-17T05:43:12Z
2022-11-17T03:44:16Z,42.805,6.029,13.3014,4.60054,2470.539,2022-11-17T05:46:15Z
2022-11-17T03:47:19Z,42.805,6.029,13.3015,4.60054,2470.577,2022-11-17T05:49:18Z
2022-11-17T03:50:23Z,42.805,6.029,13.3010,4.60056,2470.577,2022-11-17T05:52:21Z
2022-11-17T03:53:26Z,42.805,6.029,13.3010,4.60055,2470.553,2022-11-17T05:55:24Z
2022-11-17T03:56:29Z,42.805,6.029,13.3011,4.60056,2470.577,2022-11-17T05:58:27Z
2022-11-17T03:59:32Z,42.805,6.029,13.3011,4.60057,2470.614,2022-11-17T06:01:30Z
2022-11-17T04:02:35Z,42.805,6.029,13.3011,4.60054,2470.553,2022-11-17T06:04:33Z
2022-11-17T04:05:38Z,42.805,6.029,13.3009,4.60058,2470.6,2022-11-17T06:07:36Z
2022-11-17T04:08:41Z,42.805,6.029,13.3011,4.60054,2470.614,2022-11-17T06:10:39Z
2022-11-17T04:11:44Z,42.805,6.029,13.3015,4.60057,2470.577,2022-11-17T06:13:42Z
2022-11-17T04:14:47Z,42.805,6.029,13.3009,4.60054,2470.567,2022-11-17T06:16:45Z
2022-11-17T04:17:50Z,42.805,6.029,13.3011,4.60054,2470.591,2022-11-17T06:19:49Z
2022-11-17T04:20:53Z,42.805,6.029,13.3011,4.60061,2470.614,2022-11-17T06:22:52Z
2022-11-17T04:23:56Z,42.805,6.029,13.3012,4.60053,2470.614,2022-11-17T06:25:55Z
2022-11-17T04:26:59Z,42.805,6.029,13.3011,4.60054,2470.567,2022-11-17T06:28:58Z
2022-11-17T04:30:02Z,42.805,6.029,13.3014,4.60054,2470.553,2022-11-17T06:32:01Z
2022-11-17T04:33:06Z,42.805,6.029,13.3007,4.60054,2470.6,2022-11-17T06:35:04Z
2022-11-17T04:36:09Z,42.805,6.029,13.3011,4.60054,2470.567,2022-11-17T06:38:07Z
2022-11-17T04:39:12Z,42.805,6.029,13.3009,4.60057,2470.614,2022-11-17T06:41:10Z
2022-11-17T04:42:15Z,42.805,6.029,13.3009,4.60053,2470.591,2022-11-17T06:44:13Z
2022-11-17T04:45:18Z,42.805,6.029,13.3006,4.60053,2470.577,2022-11-17T06:47:16Z
2022-11-17T04:48:21Z,42.805,6.029,13.3010,4.60054,2470.6,2022-11-17T06:50:19Z
2022-11-17T04:51:24Z,42.805,6.029,13.3012,4.60053,2470.577,2022-11-17T06:53:22Z
2022-11-17T04:54:27Z,42.805,6.029,13.3009,4.60053,2470.591,2022-11-17T06:56:25Z
2022-11-17T04:57:30Z,42.805,6.029,13.3010,4.60054,2470.591,2022-11-17T06:59:29Z
2022-11-17T05:00:33Z,42.805,6.029,13.3008,4.60052,2470.624,2022-11-17T07:02:32Z
2022-11-17T05:03:36Z,42.805,6.029,13.3006,4.60053,2470.553,2022-11-17T07:05:35Z
2022-11-17T05:06:39Z,42.805,6.029,13.3011,4.60052,2470.567,2022-11-17T07:08:38Z
2022-11-17T05:09:42Z,42.805,6.029,13.3006,4.60055,2470.577,2022-11-17T07:11:41Z
2022-11-17T05:12:46Z,42.805,6.029,13.3010,4.60055,2470.577,2022-11-17T07:14:44Z
2022-11-17T05:15:49Z,42.805,6.029,13.3009,4.60054,2470.577,2022-11-17T07:17:47Z
2022-11-17T05:18:52Z,42.805,6.029,13.3012,4.60061,2470.577,2022-11-17T07:20:50Z
2022-11-17T05:21:55Z,42.805,6.029,13.3010,4.60053,2470.577,2022-11-17T07:23:53Z
2022-11-17T05:24:58Z,42.805,6.029,13.3009,4.60054,2470.577,2022-11-17T07:26:56Z
2022-11-17T05:28:01Z,42.805,6.029,13.3011,4.60052,2470.591,2022-11-17T07:29:59Z
2022-11-17T05:31:04Z,42.805,6.029,13.3012,4.60055,2470.553,2022-11-17T07:33:02Z
2022-11-17T05:34:07Z,42.805,6.029,13.3009,4.60054,2470.553,2022-11-17T07:36:05Z
2022-11-17T05:37:10Z,42.805,6.029,13.3012,4.60054,2470.577,2022-11-17T07:39:09Z
2022-11-17T05:40:13Z,42.805,6.029,13.3009,4.60054,2470.591,2022-11-17T07:42:12Z
2022-11-17T05:43:16Z,42.805,6.029,13.3011,4.60057,2470.591,2022-11-17T07:45:15Z
2022-11-17T05:46:19Z,42.805,6.029,13.3013,4.60054,2470.577,2022-11-17T07:48:18Z
2022-11-17T05:49:22Z,42.805,6.029,13.3014,4.60055,2470.567,2022-11-17T07:51:21Z
2022-11-17T05:52:26Z,42.805,6.029,13.3010,4.60057,2470.577,2022-11-17T07:54:24Z
2022-11-17T05:55:29Z,42.805,6.029,13.3013,4.60056,2470.567,2022-11-17T07:57:27Z
2022-11-17T05:58:32Z,42.805,6.029,13.3011,4.60057,2470.553,2022-11-17T08:00:30Z
2022-11-17T06:01:35Z,42.805,6.029,13.3021,4.60053,2470.567,2022-11-17T08:03:33Z
2022-11-17T06:04:38Z,42.805,6.029,13.3007,4.60054,2470.591,2022-11-17T08:06:36Z
2022-11-17T06:07:41Z,42.805,6.029,13.3009,4.60054,2470.577,2022-11-17T08:09:39Z
2022-11-17T06:10:44Z,42.805,6.029,13.3009,4.60055,2470.591,2022-11-17T08:12:42Z
2022-11-17T06:13:47Z,42.805,6.029,13.3011,4.60053,2470.591,2022-11-17T08:15:45Z
2022-11-17T06:16:50Z,42.805,6.029,13.3009,4.60052,2470.577,2022-11-17T08:18:49Z
2022-11-17T06:19:53Z,42.805,6.029,13.3010,4.60055,2470.6,2022-11-17T08:21:52Z
2022-11-17T06:22:56Z,42.805,6.029,13.3009,4.60052,2470.553,2022-11-17T08:24:55Z
2022-11-17T06:25:59Z,42.805,6.029,13.3008,4.60054,2470.567,2022-11-17T08:27:58Z
2022-11-17T06:29:02Z,42.805,6.029,13.3012,4.60055,2470.577,2022-11-17T08:31:01Z
2022-11-17T06:32:06Z,42.805,6.029,13.3008,4.60054,2470.553,2022-11-17T08:34:04Z
2022-11-17T06:35:09Z,42.805,6.029,13.3007,4.60057,2470.567,2022-11-17T08:37:07Z
2022-11-17T06:38:12Z,42.805,6.029,13.3010,4.60054,2470.553,2022-11-17T08:40:10Z
2022-11-17T06:41:15Z,42.805,6.029,13.3007,4.60059,2470.553,2022-11-17T08:43:13Z
2022-11-17T06:44:18Z,42.805,6.029,13.3008,4.60054,2470.577,2022-11-17T08:46:16Z
2022-11-17T06:47:21Z,42.805,6.029,13.3008,4.60055,2470.553,2022-11-17T08:49:19Z
2022-11-17T06:50:24Z,42.805,6.029,13.3010,4.60054,2470.577,2022-11-17T08:52:22Z
2022-11-17T06:53:27Z,42.805,6.029,13.3009,4.60055,2470.553,2022-11-17T08:55:25Z
2022-11-17T06:56:30Z,42.805,6.029,13.3006,4.60057,2470.591,2022-11-17T08:58:29Z
2022-11-17T06:59:33Z,42.805,6.029,13.3008,4.60067,2470.577,2022-11-17T09:01:32Z
2022-11-17T07:02:36Z,42.805,6.029,13.3010,4.60054,2470.567,2022-11-17T09:04:35Z
2022-11-17T07:05:39Z,42.805,6.029,13.3011,4.60062,2470.577,2022-11-17T09:07:38Z
2022-11-17T07:08:42Z,42.805,6.029,13.3010,4.60057,2470.553,2022-11-17T09:10:41Z
2022-11-17T07:11:46Z,42.805,6.029,13.3011,4.60053,2470.53,2022-11-17T09:13:44Z
2022-11-17T07:14:49Z,42.805,6.029,13.3006,4.60055,2470.553,2022-11-17T09:16:47Z
2022-11-17T07:17:52Z,42.805,6.029,13.3008,4.60060,2470.577,2022-11-17T09:19:50Z
2022-11-17T07:20:55Z,42.805,6.029,13.3008,4.60062,2470.577,2022-11-17T09:22:53Z
2022-11-17T07:23:58Z,42.805,6.029,13.3009,4.60061,2470.567,2022-11-17T09:25:56Z
2022-11-17T07:27:01Z,42.805,6.029,13.3009,4.60059,2470.53,2022-11-17T09:28:59Z
2022-11-17T07:30:04Z,42.805,6.029,13.3006,4.60072,2470.53,2022-11-17T09:32:02Z
2022-11-17T07:33:07Z,42.805,6.029,13.3006,4.60056,2470.567,2022-11-17T09:35:05Z
2022-11-17T07:36:10Z,42.805,6.029,13.3008,4.60055,2470.577,2022-11-17T09:38:09Z
2022-11-17T07:39:13Z,42.805,6.029,13.3006,4.60054,2470.553,2022-11-17T09:41:12Z
2022-11-17T07:42:16Z,42.805,6.029,13.3011,4.60063,2470.577,2022-11-17T09:44:15Z
2022-11-17T07:45:19Z,42.805,6.029,13.3009,4.60065,2470.577,2022-11-17T09:47:18Z
2022-11-17T07:48:22Z,42.805,6.029,13.3010,4.60066,2470.591,2022-11-17T09:50:21Z
2022-11-17T07:51:26Z,42.805,6.029,13.3013,4.60059,2470.6,2022-11-17T09:53:24Z
2022-11-17T07:54:29Z,42.805,6.029,13.3011,4.60063,2470.591,2022-11-17T09:56:27Z
2022-11-17T07:57:32Z,42.805,6.029,13.3012,4.60075,2470.591,2022-11-17T09:59:30Z
2022-11-17T08:00:35Z,42.805,6.029,13.3011,4.60058,2470.577,2022-11-17T10:02:33Z
2022-11-17T08:03:38Z,42.805,6.029,13.3011,4.60056,2470.553,2022-11-17T10:05:36Z
2022-11-17T08:06:41Z,42.805,6.029,13.3007,4.60058,2470.591,2022-11-17T10:08:39Z
2022-11-17T08:09:44Z,42.805,6.029,13.3007,4.60079,2470.577,2022-11-17T10:11:42Z
2022-11-17T08:12:47Z,42.805,6.029,13.3010,4.60084,2470.6,2022-11-17T10:14:45Z
2022-11-17T08:15:50Z,42.805,6.029,13.3008,4.60057,2470.553,2022-11-17T10:17:49Z
2022-11-17T08:18:53Z,42.805,6.029,13.3007,4.60061,2470.577,2022-11-17T10:20:52Z
2022-11-17T08:21:56Z,42.805,6.029,13.3011,4.60092,2470.6,2022-11-17T10:23:55Z
2022-11-17T08:24:59Z,42.805,6.029,13.3038,4.60117,2470.553,2022-11-17T10:26:58Z
2022-11-17T08:28:03Z,42.805,6.029,13.3013,4.60092,2470.637,2022-11-17T10:30:01Z
2022-11-17T08:31:06Z,42.805,6.029,13.3011,4.60098,2470.614,2022-11-17T10:33:04Z
2022-11-17T08:34:09Z,42.805,6.029,13.3008,4.60082,2470.577,2022-11-17T10:36:07Z
2022-11-17T08:37:12Z,42.805,6.029,13.3009,4.60077,2470.591,2022-11-17T10:39:10Z
2022-11-17T08:40:15Z,42.805,6.029,13.3011,4.60097,2470.614,2022-11-17T10:42:13Z
2022-11-17T08:43:18Z,42.805,6.029,13.3011,4.60108,2470.6,2022-11-17T10:45:16Z
2022-11-17T08:46:21Z,42.805,6.029,13.3019,4.60095,2470.577,2022-11-17T10:48:19Z
2022-11-17T08:49:24Z,42.805,6.029,13.3029,4.60165,2470.6,2022-11-17T10:51:23Z
2022-11-17T08:52:27Z,42.805,6.029,13.3024,4.60162,2470.6,2022-11-17T10:54:26Z
2022-11-17T08:55:30Z,42.805,6.029,13.3124,4.60108,2470.577,2022-11-17T10:57:29Z
2022-11-17T08:58:33Z,42.805,6.029,13.3060,4.60130,2470.614,2022-11-17T11:00:32Z
2022-11-17T09:01:36Z,42.805,6.029,13.3055,4.60120,2470.591,2022-11-17T11:03:35Z
2022-11-17T09:04:40Z,42.805,6.029,13.3056,4.60144,2470.591,2022-11-17T11:06:38Z
2022-11-17T09:07:43Z,42.805,6.029,13.3029,4.60128,2470.6,2022-11-17T11:09:41Z
2022-11-17T09:10:46Z,42.805,6.029,13.3033,4.60154,2470.637,2022-11-17T11:12:44Z
2022-11-17T09:13:49Z,42.805,6.029,13.3031,4.60120,2470.614,2022-11-17T11:15:47Z
2022-11-17T09:16:52Z,42.805,6.029,13.3019,4.60101,2470.6,2022-11-17T11:18:50Z
2022-11-17T09:19:55Z,42.805,6.029,13.3018,4.60152,2470.577,2022-11-17T11:21:53Z
2022-11-17T09:22:58Z,42.805,6.029,13.3041,4.60094,2470.6,2022-11-17T11:24:56Z
2022-11-17T09:26:01Z,42.805,6.029,13.3029,4.60090,2470.661,2022-11-17T11:27:59Z
2022-11-17T09:29:04Z,42.805,6.029,13.3020,4.60119,2470.624,2022-11-17T11:31:03Z
2022-11-17T09:32:07Z,42.805,6.029,13.3026,4.60105,2470.614,2022-11-17T11:34:06Z
2022-11-17T09:35:10Z,42.805,6.029,13.3026,4.60140,2470.661,2022-11-17T11:37:09Z
2022-11-17T09:38:13Z,42.805,6.029,13.3019,4.60132,2470.637,2022-11-17T11:40:12Z
2022-11-17T09:41:17Z,42.805,6.029,13.3103,4.60112,2470.661,2022-11-17T11:43:15Z
2022-11-17T09:44:20Z,42.805,6.029,13.3016,4.60129,2470.624,2022-11-17T11:46:18Z
2022-11-17T09:47:23Z,42.805,6.029,13.3013,4.60179,2470.614,2022-11-17T11:49:21Z
2022-11-17T09:50:26Z,42.805,6.029,13.3023,4.60126,2470.637,2022-11-17T11:52:24Z
2022-11-17T09:53:29Z,42.805,6.029,13.3012,4.60109,2470.614,2022-11-17T11:55:27Z
2022-11-17T09:56:32Z,42.805,6.029,13.3015,4.60102,2470.661,2022-11-17T11:58:30Z
2022-11-17T09:59:35Z,42.805,6.029,13.3043,4.60094,2470.646,2022-11-17T12:01:33Z
2022-11-17T10:02:38Z,42.805,6.029,13.3023,4.60125,2470.614,2022-11-17T12:04:36Z
2022-11-17T10:05:41Z,42.805,6.029,13.3012,4.60080,2470.637,2022-11-17T12:07:40Z
2022-11-17T10:08:44Z,42.805,6.029,13.3012,4.60087,2470.646,2022-11-17T12:10:43Z
2022-11-17T10:11:47Z,42.805,6.029,13.3013,4.60099,2470.591,2022-11-17T12:13:46Z
2022-11-17T10:14:50Z,42.805,6.029,13.3007,4.60097,2470.637,2022-11-17T12:16:49Z
2022-11-17T10:17:54Z,42.805,6.029,13.3010,4.60084,2470.661,2022-11-17T12:19:52Z
2022-11-17T10:20:57Z,42.805,6.029,13.3009,4.60112,2470.661,2022-11-17T12:22:55Z
2022-11-17T10:24:00Z,42.805,6.029,13.3013,4.60087,2470.646,2022-11-17T12:25:58Z
2022-11-17T10:27:03Z,42.805,6.029,13.3009,4.60079,2470.637,2022-11-17T12:29:01Z
2022-11-17T10:30:06Z,42.805,6.029,13.3009,4.60086,2470.646,2022-11-17T12:32:04Z
2022-11-17T10:33:09Z,42.805,6.029,13.3009,4.60080,2470.684,2022-11-17T12:35:07Z
2022-11-17T10:36:12Z,42.805,6.029,13.3009,4.60079,2470.661,2022-11-17T12:38:10Z
2022-11-17T10:39:15Z,42.805,6.029,13.3005,4.60085,2470.624,2022-11-17T12:41:13Z
2022-11-17T10:42:18Z,42.805,6.029,13.3011,4.60086,2470.661,2022-11-17T12:44:17Z
2022-11-17T10:45:21Z,42.805,6.029,13.3009,4.60089,2470.637,2022-11-17T12:47:20Z
2022-11-17T10:48:24Z,42.805,6.029,13.3007,4.60088,2470.661,2022-11-17T12:50:23Z
2022-11-17T10:51:27Z,42.805,6.029,13.3006,4.60088,2470.624,2022-11-17T12:53:26Z
2022-11-17T10:54:31Z,42.805,6.029,13.3011,4.60093,2470.693,2022-11-17T12:56:29Z
2022-11-17T10:57:34Z,42.805,6.029,13.3008,4.60094,2470.646,2022-11-17T12:59:32Z
2022-11-17T11:00:37Z,42.805,6.029,13.3009,4.60086,2470.661,2022-11-17T13:02:35Z
2022-11-17T11:03:40Z,42.805,6.029,13.3007,4.60088,2470.646,2022-11-17T13:05:38Z
2022-11-17T11:06:43Z,42.805,6.029,13.3008,4.60122,2470.684,2022-11-17T13:08:41Z
2022-11-17T11:09:46Z,42.805,6.029,13.3009,4.60127,2470.624,2022-11-17T13:11:44Z
2022-11-17T11:12:49Z,42.805,6.029,13.3005,4.60120,2470.684,2022-11-17T13:14:47Z
2022-11-17T11:15:52Z,42.805,6.029,13.3005,4.60115,2470.661,2022-11-17T13:17:50Z
2022-11-17T11:18:55Z,42.805,6.029,13.3009,4.60114,2470.707,2022-11-17T13:20:54Z
2022-11-17T11:21:58Z,42.805,6.029,13.3011,4.60112,2470.646,2022-11-17T13:23:57Z
2022-11-17T11:25:01Z,42.805,6.029,13.3006,4.60104,2470.67,2022-11-17T13:27:00Z
2022-11-17T11:28:04Z,42.805,6.029,13.3008,4.60115,2470.67,2022-11-17T13:30:03Z
2022-11-17T11:31:08Z,42.805,6.029,13.3007,4.60099,2470.661,2022-11-17T13:33:06Z
2022-11-17T11:34:11Z,42.805,6.029,13.3008,4.60112,2470.661,2022-11-17T13:36:09Z
2022-11-17T11:37:14Z,42.805,6.029,13.3009,4.60155,2470.646,2022-11-17T13:39:12Z
2022-11-17T11:40:17Z,42.805,6.029,13.3007,4.60091,2470.67,2022-11-17T13:42:15Z
2022-11-17T11:43:20Z,42.805,6.029,13.3010,4.60088,2470.656,2022-11-17T13:45:18Z
2022-11-17T11:46:23Z,42.805,6.029,13.3008,4.60077,2470.67,2022-11-17T13:48:21Z
2022-11-17T11:49:26Z,42.805,6.029,13.3007,4.60084,2470.637,2022-11-17T13:51:24Z
2022-11-17T11:52:29Z,42.805,6.029,13.3007,4.60078,2470.67,2022-11-17T13:54:27Z
2022-11-17T11:55:32Z,42.805,6.029,13.3008,4.60072,2470.633,2022-11-17T13:57:31Z
2022-11-17T11:58:35Z,42.805,6.029,13.3009,4.60071,2470.67,2022-11-17T14:00:34Z
2022-11-17T12:01:38Z,42.805,6.029,13.3006,4.60074,2470.67,2022-11-17T14:03:37Z
2022-11-17T12:04:41Z,42.805,6.029,13.3009,4.60069,2470.684,2022-11-17T14:06:40Z
2022-11-17T12:07:45Z,42.805,6.029,13.3006,4.60077,2470.693,2022-11-17T14:09:43Z
2022-11-17T12:10:48Z,42.805,6.029,13.3012,4.60079,2470.693,2022-11-17T14:12:46Z
2022-11-17T12:13:51Z,42.805,6.029,13.3010,4.60081,2470.646,2022-11-17T14:15:49Z
2022-11-17T12:16:54Z,42.805,6.029,13.3011,4.60074,2470.67,2022-11-17T14:18:52Z
2022-11-17T12:19:57Z,42.805,6.029,13.3007,4.60069,2470.684,2022-11-17T14:21:55Z
2022-11-17T12:23:00Z,42.805,6.029,13.3010,4.60066,2470.67,2022-11-17T14:24:58Z
2022-11-17T12:26:03Z,42.805,6.029,13.3008,4.60073,2470.684,2022-11-17T14:28:01Z
2022-11-17T12:29:06Z,42.805,6.029,13.3011,4.60067,2470.67,2022-11-17T14:31:04Z
2022-11-17T12:32:09Z,42.805,6.029,13.3009,4.60063,2470.637,2022-11-17T14:34:08Z
2022-11-17T12:35:12Z,42.805,6.029,13.3013,4.60066,2470.707,2022-11-17T14:37:11Z
2022-11-17T12:38:15Z,42.805,6.029,13.3011,4.60064,2470.684,2022-11-17T14:40:14Z
2022-11-17T12:41:18Z,42.805,6.029,13.3009,4.60062,2470.67,2022-11-17T14:43:17Z
2022-11-17T12:44:21Z,42.805,6.029,13.3006,4.60064,2470.693,2022-11-17T14:46:20Z
2022-11-17T12:47:25Z,42.805,6.029,13.3007,4.60072,2470.67,2022-11-17T14:49:23Z
2022-11-17T12:50:28Z,42.805,6.029,13.3006,4.60066,2470.67,2022-11-17T14:52:26Z
2022-11-17T12:53:31Z,42.805,6.029,13.3009,4.60066,2470.693,2022-11-17T14:55:29Z
2022-11-17T12:56:34Z,42.805,6.029,13.3011,4.60067,2470.684,2022-11-17T14:58:32Z
2022-11-17T12:59:37Z,42.805,6.029,13.3007,4.60066,2470.693,2022-11-17T15:01:35Z
2022-11-17T13:02:40Z,42.805,6.029,13.3012,4.60068,2470.693,2022-11-17T15:04:38Z
2022-11-17T13:05:43Z,42.805,6.029,13.3010,4.60069,2470.717,2022-11-17T15:07:41Z
2022-11-17T13:08:46Z,42.805,6.029,13.3011,4.60074,2470.693,2022-11-17T15:10:44Z
2022-11-17T13:11:49Z,42.805,6.029,13.3010,4.60071,2470.693,2022-11-17T15:13:48Z
2022-11-17T13:14:52Z,42.805,6.029,13.3006,4.60071,2470.717,2022-11-17T15:16:51Z
2022-11-17T13:17:55Z,42.805,6.029,13.3009,4.60064,2470.661,2022-11-17T15:19:54Z
2022-11-17T13:20:58Z,42.805,6.029,13.3009,4.60067,2470.693,2022-11-17T15:22:57Z
2022-11-17T13:24:02Z,42.805,6.029,13.3011,4.60064,2470.693,2022-11-17T15:26:00Z
2022-11-17T13:27:05Z,42.805,6.029,13.3010,4.60070,2470.67,2022-11-17T15:29:03Z
2022-11-17T13:30:08Z,42.805,6.029,13.3011,4.60069,2470.67,2022-11-17T15:32:06Z
2022-11-17T13:33:11Z,42.805,6.029,13.3011,4.60067,2470.67,2022-11-17T15:35:09Z
2022-11-17T13:36:14Z,42.805,6.029,13.3010,4.60063,2470.693,2022-11-17T15:38:12Z
2022-11-17T13:39:17Z,42.805,6.029,13.3010,4.60070,2470.703,2022-11-17T15:41:15Z
2022-11-17T13:42:20Z,42.805,6.029,13.3009,4.60070,2470.67,2022-11-17T15:44:18Z
2022-11-17T13:45:23Z,42.805,6.029,13.3006,4.60073,2470.67,2022-11-17T15:47:21Z
2022-11-17T13:48:26Z,42.805,6.029,13.3009,4.60069,2470.707,2022-11-17T15:50:25Z
2022-11-17T13:51:29Z,42.805,6.029,13.3009,4.60067,2470.67,2022-11-17T15:53:28Z
2022-11-17T13:54:32Z,42.805,6.029,13.3009,4.60062,2470.717,2022-11-17T15:56:31Z
2022-11-17T13:57:35Z,42.805,6.029,13.3011,4.60064,2470.693,2022-11-17T15:59:34Z
2022-11-17T14:00:39Z,42.805,6.029,13.3007,4.60061,2470.73,2022-11-17T16:02:37Z
2022-11-17T14:03:42Z,42.805,6.029,13.3007,4.60060,2470.693,2022-11-17T16:05:40Z
2022-11-17T14:06:45Z,42.805,6.029,13.3009,4.60062,2470.717,2022-11-17T16:08:43Z
2022-11-17T14:09:48Z,42.805,6.029,13.3011,4.60064,2470.693,2022-11-17T16:11:46Z
2022-11-17T14:12:51Z,42.805,6.029,13.3011,4.60064,2470.74,2022-11-17T16:14:49Z
2022-11-17T14:15:54Z,42.805,6.029,13.3013,4.60062,2470.717,2022-11-17T16:17:52Z
2022-11-17T14:18:57Z,42.805,6.029,13.3006,4.60061,2470.707,2022-11-17T16:20:55Z
2022-11-17T14:22:00Z,42.805,6.029,13.3010,4.60061,2470.693,2022-11-17T16:23:58Z
2022-11-17T14:25:03Z,42.805,6.029,13.3009,4.60062,2470.707,2022-11-17T16:27:02Z
2022-11-17T14:28:06Z,42.805,6.029,13.3009,4.60063,2470.73,2022-11-17T16:30:05Z
2022-11-17T14:31:09Z,42.805,6.029,13.3007,4.60062,2470.67,2022-11-17T16:33:08Z
2022-11-17T14:34:12Z,42.805,6.029,13.3006,4.60061,2470.707,2022-11-17T16:36:11Z
2022-11-17T14:37:15Z,42.805,6.029,13.3011,4.60062,2470.684,2022-11-17T16:39:14Z
2022-11-17T14:40:19Z,42.805,6.029,13.3007,4.60061,2470.67,2022-11-17T16:42:17Z
2022-11-17T14:43:22Z,42.805,6.029,13.3012,4.60062,2470.717,2022-11-17T16:45:20Z
2022-11-17T14:46:25Z,42.805,6.029,13.3009,4.60063,2470.67,2022-11-17T16:48:23Z
2022-11-17T14:49:28Z,42.805,6.029,13.3008,4.60062,2470.717,2022-11-17T16:51:26Z
2022-11-17T14:52:31Z,42.805,6.029,13.3012,4.60063,2470.67,2022-11-17T16:54:29Z
2022-11-17T14:55:34Z,42.805,6.029,13.3009,4.60060,2470.717,2022-11-17T16:57:32Z
2022-11-17T14:58:37Z,42.805,6.029,13.3007,4.60059,2470.67,2022-11-17T17:00:35Z
2022-11-17T15:01:40Z,42.805,6.029,13.3010,4.60059,2470.67,2022-11-17T17:03:39Z